Location: Anjeux
(47.8815°N, 6.2076°E)
Time: 16:30:02
(UTC+00:00)

SL-08 R/B - Pass Details

Date: 05 March 2021
Orbit: 945 x 994 km, 83.0° (Epoch: 14 April)

Event Time Altitude Azimuth Distance (km) Brightness Sun altitude
Rises 03:22:48 0° 349° (N) 3,666 7.7 -28.0°
Reaches altitude 10° 03:25:19 10° 347° (NNW) 2,708 6.9 -27.6°
Maximum altitude 03:31:29 72° 265° (W) 1,004 4.3 -26.6°
Enters shadow 03:32:00 68° 229° (SW) 1,025 4.3 -26.6°
